Regional Weather Roundup
Issued by NWS Grand Forks, ND

Home | Current Version | Previous Version | Graphics & Text | Print | Product List | Glossary On
Versions: 1 2 3 4 5 6 7 8 9 10 11 12 13 14 15 16 17 18 19 20 21 22 23 24 25 26 27 28 29 30 31 32 33 34 35 36 37 38 39 40 41 42 43 44 45 46 47 48 49 50
000
ASUS43 KFGF 221710
RWRFGF
PRAIRIE TO PINES  WEATHER ROUNDUP
NATIONAL WEATHER SERVICE EASTERN NORTH DAKOTA/GRAND FORKS ND
1100 AM CST WED FEB 22 2017

 **SATELLITE DATA USED TO AUGMENT SKY COVER AT AUTOMATED STATIONS**
 *****  WEATHER ACROSS EASTERN NORTH DAKOTA  *****

CITY           SKY/WX    TMP DP  RH WIND       PRES   REMARKS
GRAND FORKS    DRIZZLE   34  28  79 N20       29.76R WCI  23
GRAND FRKS AFB CLOUDY    33  32  99 NE16      29.77R WCI  22
DEVILS LAKE    CLOUDY    31  28  89 NE20      29.80R WCI  19
FARGO          LGT RAIN  34  33  96 N15       29.67F VSB 3/4 WCI  24
WAHPETON ARPT  PTSUNNY   36  34  93 N13       29.63F
$$

 ***** WEATHER ACROSS CENTRAL AND WESTERN NORTH DAKOTA  *****

CITY           SKY/WX    TMP DP  RH WIND       PRES   REMARKS
BISMARCK       LGT SNOW  34  33  96 N9        29.77R FOG
MINOT          CLOUDY    33  29  85 N17       29.83R WCI  22
JAMESTOWN      LGT SNOW  33  32  96 N8        29.72R VSB 1
MINOT AFB      CLOUDY    31  28  86 N14       29.83R WCI  21
GARRISON         N/A     31  29  92 N14G21    29.80R WCI  21
WILLISTON      CLOUDY    31  26  82 N12       29.89R WCI  22
DICKINSON      SNOW      29  26  89 N14       29.79R VSB 1/2 WCI  18
HETTINGER      CLOUDY    32  30  92 N13       29.78R WCI  22
$$

 *****  OTHER AIRPORT OBSERVATIONS IN OUR AREA  *****

CITY           SKY/WX    TMP DP  RH WIND       PRES   REMARKS
WALHALLA       NOT AVBL
GRAFTON AIRPOR PTSUNNY   32  32 100 N13       29.81R WCI  22
VALLEY CITY AR LGT SNOW  32  32 100 N12G20    29.73R VSB 1   WCI  23
CANDO          NOT AVBL
CAVALIER APRT    N/A     32  28  86 N12       29.81S WCI  23
GWINNER        CLOUDY    34  34 100 NW15      29.70R WCI  24
SHEYENNE NWR     N/A     33  33 100 N8        29.95S
ROLLA          CLOUDY    28  28 100 NE15      29.82R WCI  17
 ***** THE ABOVE OBSERVATIONS ARE NON NWS ARE NOT QUALITY
       CONTROLLED AND MAY MIS-REPORT RAIN FOR SNOW...
$$

  *****  WEATHER ACROSS NORTHERN MINNESOTA  *****

CITY           SKY/WX    TMP DP  RH WIND       PRES   REMARKS
FLAG ISLAND    CLOUDY    30  25  80 N13       29.76S WCI  20
WARROAD        FAIR      32  28  86 N10       29.76S WCI  24
ROSEAU         FAIR      32  28  86 N9        29.76S WCI  24
HALLOCK        CLOUDY    34  28  80 N15       29.78R WCI  24
THF RVR FALLS  MIX PCPN  33  31  92 N16       29.74R WCI  23
BAUDETTE       FLURRIES  33  31  92 N10       29.73R WCI  25
WASKISH        CLOUDY    34  34 100 NE7       29.70S
CROOKSTON      MIX PCPN  34  34 100 N12       29.74S
GREENBUSH NDAW   N/A     30  28  93 N12         N/A  WCI  21
$$
  *****  WEATHER ACROSS CENTRAL AND WEST MINNESOTA  *****

CITY           SKY/WX    TMP DP  RH WIND       PRES   REMARKS
FOSSTON        MIX PCPN  32  32 100 N12       29.69S WCI  23
BEMIDJI        CLOUDY    35  33  94 N12       29.66S
PARK RAPIDS    CLOUDY    40  34  79 NE5       29.62F
ELBOW LAKE     FAIR      39  38  94 N9        29.61F
WADENA         FAIR      39  37  93 NE9       29.61F
DETROIT LAKES    N/A     36  34  93 N7        29.66R FOG
MOORHEAD       RAIN      32  32 100 N15       29.67F WCI  22
FERGUS FALLS   PTSUNNY   39  39 100 N8        29.67S
MORRIS MN      FAIR      45  41  87 NE8       29.60S
STAPLES        PTSUNNY   39  37  93 NE6       29.61F
$$
  *****  WEATHER ELSEWHERE ACROSS MINNESOTA  *****

CITY           SKY/WX    TMP DP  RH WIND       PRES   REMARKS
DULUTH         PTSUNNY   44  36  73 NE5       29.61S
INTRNTL FALLS  CLOUDY    34  30  85 NE8       29.70S
ELY            CLOUDY    36  32  87 CALM      29.65R
CLOQUET        CLOUDY    45  36  70 NE3       29.60F
WHEATON        PTSUNNY   39  37  93 N7        29.65S FOG
BRAINERD       FAIR      41  38  89 N5        29.63R
HIBBING        CLOUDY    39  35  86 N3        29.63S
ALEXANDRIA     PTSUNNY   45  38  76 NE7       29.61S
SAINT CLOUD    FAIR      41  40  96 E5        29.57F
MINNEAPOLIS    CLOUDY    47  41  80 CALM      29.58F
$$

  *****  WEATHER ACROSS SOUTH DAKOTA  *****

CITY           SKY/WX    TMP DP  RH WIND       PRES   REMARKS
SIOUX FALLS    FAIR      55  42  61 W9        29.63S
BROOKINGS      FAIR      56  42  59 W15       29.59S
WATERTOWN      FAIR      52  42  69 NW5       29.59S
HURON          FAIR      48  41  76 NW14      29.63S
SISSETON         N/A     38  38 100 N12       29.62S
ABERDEEN       CLOUDY    40  34  79 N16       29.70R
MITCHELL       FAIR      59  38  45 W18G26    29.64S
PIERRE         FAIR      48  37  65 NW15      29.72R
MOBRIDGE       PTSUNNY   42  35  76 N12       29.70R
RAPID CITY     FAIR      53  24  32 NW28G33   29.75R
$$

  *****  SOME WEATHER IN NEARBY STATES *****

CITY           SKY/WX    TMP DP  RH WIND       PRES   REMARKS
GLASGOW MT     LGT SNOW  30  27  88 E10       29.93R FOG     WCI  21
GREAT FALLS MT CLOUDY    34  30  85 CALM      29.88R
CHEYENNE WY    PTSUNNY   40  23  50 NW18G26   29.90F
SCOTTSBLUFF NE PTSUNNY   50  23  34 W16G28    29.85R
OMAHA NE       FAIR      61  34  36 VRB5      29.65F
DES MOINES IA  FAIR      70  32  24 SW18      29.60F
DAVENPORT IA   FAIR      63  53  70 SW17G24   29.71F
CHICAGO IL     CLOUDY    58  53  84 SW12      29.76F
EAU CLAIRE WI  FAIR      51  39  63 VRB3      29.58F
LA CROSSE WI   FAIR      55  36  48 S7        29.60F
$$

  *****  SOME NATIONAL WEATHER *****

CITY           SKY/WX    TMP DP  RH WIND       PRES   REMARKS
LA GUARDIA NY  CLOUDY    51  37  58 NW3       29.99F
RALEIGH NC     CLOUDY    68  52  56 SW10      30.00F
ATLANTA GA     CLOUDY    63  60  90 E12       29.91S
NEW ORLEANS LA FAIR      67  56  67 N8        29.85F
OKLAHOMA CITY  FAIR      70  36  28 S13       29.83F
ALBUQUERQUE NM PTSUNNY   54  35  48 S8        30.12F
SALT LAKE CITY PTSUNNY   38  34  85 SE8       29.97F
LOS ANGELES CA FAIR      58  50  75 W12       30.15R
BOISE ID       FAIR      36  29  75 S5        29.99S
SEATTLE WA     PTSUNNY   38  34  85 S6        30.19S
$$

*** WEATHER ACROSS MANITOBA...SASKATCHEWAN AND ONTARIO ***
                ***ONTARIO***

CITY           SKY/WX    TMP DP  RH WIND       PRES   REMARKS
GERALDTON      CLOUDY    36  28  75 NW5       29.64F
THUNDER BAY    CLOUDY    41  32  70 S2        29.65S
SIOUX LOOKOUT  CLOUDY    30  23  74 N6        29.71R WCI  24
TORONTO        FOG       45  43  93 SE5       29.86S VSB 1/2
BIG TROUT LK   CLOUDY    12   5  73 NW17G23   29.65S WCI  -5
PICKLE LAKE    CLOUDY    30  21  69 W12       29.65F WCI  21
DRYDEN         CLOUDY    30  27  86 N7        29.72R WCI  23
KENORA         CLOUDY    30  23  74 N8        29.75R WCI  23
$$
                *** MANITOBA***

CITY           SKY/WX    TMP DP  RH WIND       PRES   REMARKS
BRANDON        PTSUNNY   34  23  64 NW5       29.85S
DAUPHIN        SUNNY     32  25  74 NE12      29.86R WCI  23
ISLAND LAKE    MOSUNNY    9   0  66 NW12G17   29.79R WCI  -6
PILOT MOUND      N/A     30  23  74 N15         N/A  WCI  19
THE PAS        FLURRIES  21   9  58 NW12G20   29.89R WCI   9
THOMPSON       LGT SNOW   3  -6  66 N14G20    29.85R WCI -15
WINNIPEG       CLOUDY    34  28  80 NW9       29.82S
LYNN LAKE      LGT SNOW   0  -6  78 N8        29.92R WCI -15
CHURCHILL      PTSUNNY   -2  -8  78 NE21      29.95R BLWGSNOWWCI -25
GILLAM         LGT SNOW   1  -8  66 N16G23    29.81R WCI -18
$$
                ***SASKATCHEWAN***

CITY           SKY/WX    TMP DP  RH WIND       PRES   REMARKS
ESTEVAN        CLOUDY    30  25  80 NW9       29.90R WCI  22
KINDERSLEY     CLOUDY    30  27  86 N10       29.93R FOG     WCI  21
LLOYDMINSTER   CLOUDY    23  19  86 NW8       29.96R WCI  14
PRINCE ALBERT  FLURRIES  25  16  68 N8        29.95R WCI  16
REGINA         CLOUDY    32  25  74 NW8       29.91R WCI  25
YORKTON        PTSUNNY   34  28  80 NW10      29.85R
N. BATTLEFORD  CLOUDY    27  27 100 N15       29.96R WCI  15
LA RONGE       FLURRIES  16   7  67 W12       29.96R WCI   3
SASKATOON      CLOUDY    30  27  86 NE10      29.94R WCI  21
SWIFT CURRENT  PTSUNNY   30  30 100 W3        29.90R
$$
NOTE: THESE ARE AUTOMATED STATIONS WITH LIMITED QUALITY CONTROL
      "FAIR" INDICATES FEW OR NO CLOUDS BELOW 12,000 FEET WITH NO
      SIGNIFICANT WEATHER AND/OR OBSTRUCTIONS TO VISIBILITY.
      SKY/WX - SKY CONDITION AND SIGNIFICANT WEATHER.
      TMP - AIR TEMPERATURE.    DP   - DEWPOINT TEMPERATURE.
      RH  - RELATIVE HUMIDITY.  PRES - PRESSURE.
      HX  - HEAT INDEX.         WCI  - WIND CHILL INDEX.
$




USA.gov is the U.S. government's official web portal to all federal, state and local government web resources and services.